VA5EVR-13 Weather Reports


time (UTC)temp
F
wind
direction
speed
knots
gust
knots
rain 1hr
in
rain 24hr
in
rain mn
in
humidity
%
barometer
mb
20260509013012 56 45 14.8 14.8 0.00 0.00 0.00 51 88.8
20260509012012 58 68 13.9 13.9 0.00 0.00 0.00 51 88.8
20260509011011 59 68 15.6 15.6 0.00 0.00 0.00 50 88.8
20260509010011 60 22 15.6 15.6 0.00 0.00 0.00 50 88.8
20260509005011 61 22 13.9 13.9 0.00 0.00 0.00 50 88.8
20260509004012 61 45 14.8 14.8 0.00 0.00 0.00 50 88.8
20260509003012 61 22 12.2 12.2 0.00 0.00 0.00 50 88.8
20260509002012 62 22 16.5 16.5 0.00 0.00 0.00 50 88.8
20260509001012 61 22 13.9 13.9 0.00 0.00 0.00 50 88.8
20260508235011 61 45 18.2 18.2 0.00 0.00 0.00 48 88.8
20260508233012 62 68 18.2 18.2 0.00 0.00 0.00 48 88.8
20260508231011 62 22 14.8 14.8 0.00 0.00 0.00 45 88.8
20260508230011 62 22 16.5 16.5 0.00 0.00 0.00 44 88.8
20260508225012 63 22 7.8 7.8 0.00 0.00 0.00 41 88.8
20260508224011 62 22 10.4 10.4 0.00 0.00 0.00 42 88.8
20260508223011 63 0 13.9 13.9 0.00 0.00 0.00 42 88.8
20260508222012 62 22 15.6 15.6 0.00 0.00 0.00 43 88.8
20260508221011 62 0 11.3 11.3 0.00 0.00 0.00 44 88.8
20260508220011 62 22 19.1 19.1 0.00 0.00 0.00 44 88.8
20260508215012 62 45 14.8 14.8 0.00 0.00 0.00 45 88.8
20260508214011 63 45 17.4 17.4 0.00 0.00 0.00 45 88.8
20260508212013 64 0 18.2 18.2 0.00 0.00 0.00 44 88.8
20260508211011 64 45 17.4 17.4 0.00 0.00 0.00 43 88.8
20260508210011 64 22 20.0 20.0 0.00 0.00 0.00 43 88.8
20260508205011 64 22 16.5 16.5 0.00 0.00 0.00 46 88.8
20260508204012 63 22 18.2 18.2 0.00 0.00 0.00 46 88.8
20260508203012 65 45 17.4 17.4 0.00 0.00 0.00 43 88.8
20260508202013 65 22 10.4 10.4 0.00 0.00 0.00 43 88.8
20260508201011 64 0 13.9 13.9 0.00 0.00 0.00 44 88.8
20260508200011 64 22 19.1 19.1 0.00 0.00 0.00 42 88.8
20260508195012 63 22 11.3 11.3 0.00 0.00 0.00 44 88.8
20260508194011 63 22 16.5 16.5 0.00 0.00 0.00 44 88.8
20260508193012 63 22 16.5 16.5 0.00 0.00 0.00 43 88.8
20260508192012 63 22 14.8 14.8 0.00 0.00 0.00 42 88.8
20260508191012 64 22 15.6 15.6 0.00 0.00 0.00 41 88.8
20260508185011 65 338 14.8 14.8 0.00 0.00 0.00 39 88.8
20260508184012 67 315 14.8 14.8 0.00 0.00 0.00 37 88.8
20260508183012 68 270 12.2 12.2 0.00 0.00 0.00 37 88.8
20260508182012 68 315 15.6 15.6 0.00 0.00 0.00 37 88.8
20260508181011 68 338 12.2 12.2 0.00 0.00 0.00 36 88.8
20260508180011 68 270 8.7 8.7 0.00 0.00 0.00 36 88.8
20260508175011 68 270 13.0 13.0 0.00 0.00 0.00 36 88.8
20260508174012 69 292 15.6 15.6 0.00 0.00 0.00 36 88.8
20260508173011 69 22 13.9 13.9 0.00 0.00 0.00 35 88.8
20260508172011 69 22 12.2 12.2 0.00 0.00 0.00 36 88.8
20260508171012 69 292 9.6 9.6 0.00 0.00 0.00 36 88.8
20260508170012 69 315 11.3 11.3 0.00 0.00 0.00 36 88.8
20260508165011 68 270 8.7 8.7 0.00 0.00 0.00 38 88.8
20260508162011 65 292 10.4 10.4 0.00 0.00 0.00 39 88.8
20260508161012 65 248 8.7 8.7 0.00 0.00 0.00 40 88.8
20260508160012 63 292 13.0 13.0 0.00 0.00 0.00 42 88.8
20260508155012 63 270 11.3 11.3 0.00 0.00 0.00 42 88.8
20260508154012 62 292 13.0 13.0 0.00 0.00 0.00 43 88.8
20260508153011 62 270 13.9 13.9 0.00 0.00 0.00 44 88.8
20260508152012 62 270 13.9 13.9 0.00 0.00 0.00 44 88.8
20260508151012 62 270 17.4 17.4 0.00 0.00 0.00 45 88.8
20260508150012 62 270 17.4 17.4 0.00 0.00 0.00 47 88.8
20260508145011 62 292 16.5 16.5 0.00 0.00 0.00 47 88.8
20260508144011 62 270 16.5 16.5 0.00 0.00 0.00 46 88.8
20260508143012 61 248 19.1 19.1 0.00 0.00 0.00 46 88.8
20260508141012 59 270 14.8 14.8 0.00 0.00 0.00 50 88.8
20260508140012 58 270 11.3 11.3 0.00 0.00 0.00 52 88.8
20260508135012 56 270 12.2 12.2 0.00 0.00 0.00 56 88.8
20260508134011 54 270 13.9 13.9 0.00 0.00 0.00 58 88.8
20260508133013 54 270 13.9 13.9 0.00 0.00 0.00 59 88.8
20260508132012 53 270 13.9 13.9 0.00 0.00 0.00 60 88.8
20260508131012 51 270 11.3 11.3 0.00 0.00 0.00 60 88.8
20260508130011 49 270 11.3 11.3 0.00 0.00 0.00 61 88.8
20260508125011 48 270 14.8 14.8 0.00 0.00 0.00 61 88.8
20260508124011 46 225 12.2 12.2 0.00 0.00 0.00 64 88.8
20260508123011 44 248 9.6 9.6 0.00 0.00 0.00 67 88.8
20260508122011 44 270 8.7 8.7 0.00 0.00 0.00 69 88.8
20260508121012 43 270 7.0 7.0 0.00 0.00 0.00 72 88.8
20260508115012 41 248 7.8 7.8 0.00 0.00 0.00 75 88.8
20260508114011 41 248 7.8 7.8 0.00 0.00 0.00 75 88.8
20260508112012 40 202 4.3 4.3 0.00 0.00 0.00 76 88.8
20260508111012 39 248 4.3 4.3 0.00 0.00 0.00 76 88.8
20260508110012 40 225 5.2 5.2 0.00 0.00 0.00 76 88.8
20260508105011 40 248 5.2 5.2 0.00 0.00 0.00 76 88.8
20260508104011 40 248 4.3 4.3 0.00 0.00 0.00 75 88.8
20260508103012 41 248 4.3 4.3 0.00 0.00 0.00 75 88.8
20260508102012 41 248 4.3 4.3 0.00 0.00 0.00 75 88.8
20260508101011 40 270 5.2 5.2 0.00 0.00 0.00 75 88.8
20260508100011 41 225 5.2 5.2 0.00 0.00 0.00 75 88.8
20260508095011 41 225 6.1 6.1 0.00 0.00 0.00 75 88.8
20260508094012 41 270 4.3 4.3 0.00 0.00 0.00 75 88.8
20260508093011 40 225 6.1 6.1 0.00 0.00 0.00 75 88.8
20260508092012 40 270 6.1 6.1 0.00 0.00 0.00 76 88.8
20260508091012 40 248 4.3 4.3 0.00 0.00 0.00 76 88.8
20260508085012 39 270 4.3 4.3 0.00 0.00 0.00 76 88.8
20260508084012 39 248 5.2 5.2 0.00 0.00 0.00 79 88.8
20260508083011 39 225 5.2 5.2 0.00 0.00 0.00 79 88.8
20260508082012 39 248 4.3 4.3 0.00 0.00 0.00 79 88.8
20260508081013 39 225 3.5 3.5 0.00 0.00 0.00 80 88.8
20260508080011 39 202 4.3 4.3 0.00 0.00 0.00 79 88.8
20260508075011 39 248 4.3 4.3 0.00 0.00 0.00 78 88.8
20260508074012 38 225 4.3 4.3 0.00 0.00 0.00 79 88.8
20260508073011 36 248 3.5 3.5 0.00 0.00 0.00 80 88.8
20260508072011 35 248 3.5 3.5 0.00 0.00 0.00 83 88.8
20260508070012 34 112 0.0 0.0 0.00 0.00 0.00 82 88.8
20260508065012 35 270 0.0 0.0 0.00 0.00 0.00 79 88.8
20260508064012 36 225 0.0 0.0 0.00 0.00 0.00 77 88.8
20260508063011 37 202 2.6 2.6 0.00 0.00 0.00 77 88.8
20260508062011 37 225 0.0 0.0 0.00 0.00 0.00 75 88.8
20260508061012 37 225 3.5 3.5 0.00 0.00 0.00 74 88.8
20260508060012 36 202 3.5 3.5 0.00 0.00 0.00 74 88.8
20260508055013 35 225 0.0 0.0 0.00 0.00 0.00 76 88.8
20260508054012 35 225 0.0 0.0 0.00 0.00 0.00 78 88.8
20260508053011 36 180 0.0 0.0 0.00 0.00 0.00 77 88.8
20260508052012 36 158 0.0 0.0 0.00 0.00 0.00 75 88.8
20260508051011 36 180 0.0 0.0 0.00 0.00 0.00 76 88.8
20260508050012 38 315 0.0 0.0 0.00 0.00 0.00 74 88.8
20260508045012 40 22 0.0 0.0 0.00 0.00 0.00 72 88.8
20260508044012 43 22 0.0 0.0 0.00 0.00 0.00 71 88.8
20260508043012 44 22 2.6 2.6 0.00 0.00 0.00 70 88.8
20260508042012 45 22 2.6 2.6 0.00 0.00 0.00 70 88.8
20260508041011 46 22 2.6 2.6 0.00 0.00 0.00 69 88.8
20260508040012 47 45 3.5 3.5 0.00 0.00 0.00 66 88.8
20260508035011 48 45 3.5 3.5 0.00 0.00 0.00 66 88.8
20260508034011 48 112 1.7 1.7 0.00 0.00 0.00 67 88.8
20260508033012 48 68 2.6 2.6 0.00 0.00 0.00 64 88.8
20260508032011 49 90 3.5 3.5 0.00 0.00 0.00 64 88.8
20260508031016 49 68 4.3 4.3 0.00 0.00 0.00 64 88.8
20260508030011 50 45 4.3 4.3 0.00 0.00 0.00 63 88.8
20260508025012 52 45 6.1 6.1 0.00 0.00 0.00 60 88.8
20260508023012 54 68 8.7 8.7 0.00 0.00 0.00 53 88.8
20260508022012 55 90 5.2 5.2 0.00 0.00 0.00 51 88.8
20260508021011 57 90 4.3 4.3 0.00 0.00 0.00 49 88.8
20260508020011 58 68 5.2 5.2 0.00 0.00 0.00 47 88.8
20260508015011 59 90 6.1 6.1 0.00 0.00 0.00 46 88.8
20260508014013 60 90 7.8 7.8 0.00 0.00 0.00 45 88.8